Printer-friendly version

IAU Minor Planet Center

Minor Planet Center

MPEC 2008-G23 : 2008 GV

The following Minor Planet Electronic Circular may be linked-to from your own Web pages, but must not otherwise be redistributed electronically.


Read MPEC 2008-G22 Read MPEC 2008-G24


M.P.E.C. 2008-G23                                Issued 2008 Apr. 4, 22:10 UT

     The Minor Planet Electronic Circulars contain information on unusual
         minor planets and routine data on comets.  They are published
   on behalf of Commission 20 of the International Astronomical Union by the
          Minor Planet Center, Smithsonian Astrophysical Observatory,
                          Cambridge, MA 02138, U.S.A.

             Prepared using the Tamkin Foundation Computer Network

                              MPC@CFA.HARVARD.EDU
          URL http://www.cfa.harvard.edu/iau/mpc.html  ISSN 1523-6714

                                    2008 GV

Observations:
     K08G00V* C2008 04 03.23673 13 05 40.07 +14 02 44.2          18.5   EG023704
     K08G00V  C2008 04 03.24843 13 05 32.45 +13 57 18.9          18.5   EG023704
     K08G00V  C2008 04 03.26029 13 05 24.75 +13 51 50.3          18.3   EG023704
     K08G00V  C2008 04 03.27220 13 05 16.99 +13 46 18.2          18.9   EG023704
     K08G00V  C2008 04 03.28391 13 05 09.28 +13 40 51.9          18.9   EG023704
     K08G00V  C2008 04 04.24240 12 55 16.09 +05 54 48.8          18.2   EG023704
     K08G00V  C2008 04 04.25396 12 55 08.32 +05 48 59.8          18.5   EG023704
     K08G00V  C2008 04 04.26555 12 55 00.49 +05 43 10.9          19.6   EG023704
     K08G00V  C2008 04 04.27710 12 54 52.69 +05 37 18.8          18.7   EG023704
     K08G00V  C2008 04 04.88949 12 48 25.09 +00 22 44.9          18.7 V EG023595
     K08G00V  C2008 04 04.89121 12 48 23.97 +00 21 51.3          18.3 V EG023595
     K08G00V  C2008 04 04.89355 12 48 22.34 +00 20 38.4          18.3 V EG023595

Observer details:
595 Farra d'Isonzo.  Observers G. Lombardi, E. Pettarin, F. Piani.  Measurer
    E. Pettarin.  0.30-m f/4.5 reflector + CCD.
704 Lincoln Laboratory ETS, New Mexico.  Observers M. Bezpalko, D. Torres,
    R. Kracke, G. Spitz, J. Kistler.  Measurers J. Stuart, S. Scruggs.  1.0-m
    f/2.15 reflector + CCD.

Orbital elements:
2008 GV                                                  Earth MOID = 0.0660 AU
Epoch 2008 May 14.0 TT = JDT 2454600.5                  MPC
M   9.28078              (2000.0)            P               Q
n   0.22803329     Peri.  177.55875     -0.97202586     +0.19271612
a   2.6534071      Node    15.64842     -0.22304641     -0.57828229
e   0.5981511      Incl.   29.85170     -0.07359366     -0.79274844
P   4.32           H   23.2           G   0.15           U   9
Residuals in seconds of arc
080403 704  0.3-  0.3+    080403 704  0.2+  0.1-    080404 704  0.3-  0.4-
080403 704  0.3-  0.5-    080404 704  0.4-  0.8-    080404 595  0.0   0.1-
080403 704  0.3+  0.4+    080404 704  0.2-  0.2-    080404 595  0.7+  0.1-
080403 704  0.7+  0.3-    080404 704  0.3-  1.8+    080404 595  0.0   0.1-

Ephemeris:
2008 GV                  a,e,i = 2.65, 0.60, 30                  q = 1.0663
Date    TT    R. A. (2000) Decl.     Delta      r     Elong.  Phase     V
2008 04 04    12 57.77   +07 57.4    0.0679   1.066   166.3    12.8    18.3
2008 04 05    12 47.20   -00 32.7    0.0663   1.066   173.9     5.7    17.9
2008 04 06    12 36.37   -09 14.2    0.0665   1.067   173.4     6.2    17.9
2008 04 07    12 25.35   -17 39.5    0.0683   1.067   165.6    13.5    18.3
2008 04 08    12 14.20   -25 25.5    0.0716   1.068   157.7    20.8    18.6
2008 04 09    12 03.01   -32 18.2    0.0763   1.069   150.6    27.4    19.0
2008 04 10    11 51.85   -38 13.6    0.0821   1.070   144.4    33.1    19.3
2008 04 11    11 40.80   -43 14.1    0.0888   1.071   139.0    37.9    19.6
2008 04 12    11 29.93   -47 25.9    0.0963   1.072   134.5    41.8    19.9
2008 04 13    11 19.30   -50 56.2    0.104    1.074   130.6    45.1    20.2
2008 04 14    11 08.99   -53 51.7    0.113    1.075   127.4    47.8    20.4
2008 04 15    10 59.03   -56 18.8    0.121    1.077   124.6    50.1    20.6
2008 04 16    10 49.47   -58 22.4    0.130    1.079   122.2    51.9    20.9
2008 04 17    10 40.33   -60 06.8    0.139    1.081   120.2    53.4    21.0
2008 04 18    10 31.64   -61 35.5    0.149    1.083   118.4    54.6    21.2
2008 04 19    10 23.42   -62 51.2    0.158    1.085   116.9    55.6    21.4
2008 04 20    10 15.66   -63 56.2    0.168    1.088   115.6    56.4    21.5
2008 04 21    10 08.37   -64 52.3    0.177    1.090   114.4    57.1    21.7
2008 04 22    10 01.55   -65 41.0    0.187    1.093   113.4    57.6    21.8
2008 04 23    09 55.19   -66 23.5    0.197    1.096   112.5    58.0    22.0
2008 04 24    09 49.27   -67 00.7    0.206    1.099   111.7    58.3    22.1

Timothy B. Spahr             (C) Copyright 2008 MPC           M.P.E.C. 2008-G23

Read MPEC 2008-G22 Read MPEC 2008-G24


Our Web policy. Index to the CBAT/MPC/ICQ pages.


Valid HTML 4.01!